| time (UTC) | temp C | wind direction | speed KPH | gust KPH | rain 1hr cm | rain 24hr cm | rain mn cm | humidity % | barometer mb |
| 20260505025235 | 22 | 257 | 3.2 | 6.4 | 0.00 | 0.00 | 0.00 | 49 | 1005.0 |
| 20260505024735 | 22 | 246 | 3.2 | 4.8 | 0.00 | 0.00 | 0.00 | 49 | 1005.0 |
| 20260505024235 | 22 | 206 | 1.6 | 3.2 | 0.00 | 0.00 | 0.00 | 49 | 1005.0 |
| 20260505023735 | 22 | 171 | 1.6 | 4.8 | 0.00 | 0.00 | 0.00 | 49 | 1005.0 |
| 20260505023235 | 22 | 238 | 3.2 | 3.2 | 0.00 | 0.00 | 0.00 | 50 | 1005.0 |
| 20260505022736 | 22 | 217 | 0.0 | 3.2 | 0.00 | 0.00 | 0.00 | 49 | 1005.0 |
| 20260505022236 | 22 | 230 | 0.0 | 6.4 | 0.00 | 0.00 | 0.00 | 49 | 1005.0 |
| 20260505021735 | 22 | 265 | 1.6 | 4.8 | 0.00 | 0.00 | 0.00 | 49 | 1005.0 |
| 20260505021235 | 22 | 240 | 1.6 | 4.8 | 0.00 | 0.00 | 0.00 | 50 | 1004.0 |
| 20260505020735 | 22 | 254 | 4.8 | 4.8 | 0.00 | 0.00 | 0.00 | 50 | 1004.0 |
| 20260505020235 | 22 | 206 | 1.6 | 3.2 | 0.00 | 0.00 | 0.00 | 51 | 1004.0 |
| 20260505015736 | 22 | 224 | 0.0 | 3.2 | 0.00 | 0.00 | 0.00 | 50 | 1004.0 |
| 20260505015235 | 22 | 219 | 0.0 | 3.2 | 0.00 | 0.00 | 0.00 | 50 | 1004.0 |
| 20260505014735 | 22 | 218 | 3.2 | 3.2 | 0.00 | 0.00 | 0.00 | 50 | 1004.0 |
| 20260505014235 | 23 | 211 | 0.0 | 3.2 | 0.00 | 0.00 | 0.00 | 50 | 1004.0 |
| 20260505013736 | 23 | 212 | 0.0 | 1.6 | 0.00 | 0.00 | 0.00 | 49 | 1004.0 |
| 20260505013235 | 23 | 221 | 0.0 | 1.6 | 0.00 | 0.00 | 0.00 | 48 | 1004.0 |
| 20260505012737 | 23 | 214 | 1.6 | 3.2 | 0.00 | 0.00 | 0.00 | 48 | 1004.0 |
| 20260505012235 | 23 | 251 | 0.0 | 3.2 | 0.00 | 0.00 | 0.00 | 48 | 1004.0 |
| 20260505011735 | 23 | 235 | 1.6 | 4.8 | 0.00 | 0.00 | 0.00 | 47 | 1004.0 |
| 20260505011235 | 23 | 216 | 1.6 | 4.8 | 0.00 | 0.00 | 0.00 | 47 | 1004.0 |
| 20260505010736 | 23 | 249 | 4.8 | 4.8 | 0.00 | 0.00 | 0.00 | 46 | 1004.0 |
| 20260505010235 | 24 | 282 | 3.2 | 3.2 | 0.00 | 0.00 | 0.00 | 46 | 1004.0 |
| 20260505005735 | 24 | 255 | 0.0 | 3.2 | 0.00 | 0.00 | 0.00 | 46 | 1004.0 |
| 20260505005236 | 24 | 207 | 1.6 | 4.8 | 0.00 | 0.00 | 0.00 | 46 | 1004.0 |
| 20260505004738 | 24 | 247 | 4.8 | 4.8 | 0.00 | 0.00 | 0.00 | 46 | 1004.0 |
| 20260505004235 | 24 | 186 | 1.6 | 3.2 | 0.00 | 0.00 | 0.00 | 46 | 1003.0 |
| 20260505003735 | 25 | 240 | 1.6 | 3.2 | 0.00 | 0.00 | 0.00 | 46 | 1003.0 |
| 20260505003235 | 25 | 244 | 3.2 | 3.2 | 0.00 | 0.00 | 0.00 | 46 | 1003.0 |
| 20260505002735 | 25 | 262 | 0.0 | 3.2 | 0.00 | 0.00 | 0.00 | 46 | 1003.0 |
| 20260505002235 | 25 | 205 | 1.6 | 4.8 | 0.00 | 0.00 | 0.00 | 46 | 1003.0 |
| 20260505001737 | 25 | 246 | 0.0 | 3.2 | 0.00 | 0.00 | 0.00 | 45 | 1004.0 |
| 20260505001236 | 25 | 229 | 1.6 | 3.2 | 0.00 | 0.00 | 0.00 | 45 | 1004.0 |
| 20260505000735 | 25 | 223 | 0.0 | 4.8 | 0.00 | 0.00 | 0.00 | 45 | 1003.0 |
| 20260505000236 | 25 | 234 | 1.6 | 8.0 | 0.00 | 0.00 | 0.00 | 45 | 1004.0 |
| 20260504235735 | 25 | 225 | 3.2 | 4.8 | 0.00 | 0.00 | 0.00 | 45 | 1004.0 |
| 20260504235235 | 26 | 207 | 3.2 | 4.8 | 0.00 | 0.00 | 0.00 | 44 | 1003.0 |
| 20260504234735 | 26 | 208 | 3.2 | 4.8 | 0.00 | 0.00 | 0.00 | 44 | 1003.0 |
| 20260504234236 | 26 | 253 | 6.4 | 6.4 | 0.00 | 0.00 | 0.00 | 44 | 1004.0 |
| 20260504233735 | 26 | 234 | 3.2 | 4.8 | 0.00 | 0.00 | 0.00 | 44 | 1003.0 |
| 20260504233235 | 26 | 283 | 1.6 | 4.8 | 0.00 | 0.00 | 0.00 | 44 | 1003.0 |
| 20260504232735 | 26 | 249 | 4.8 | 6.4 | 0.00 | 0.00 | 0.00 | 44 | 1004.0 |
| 20260504232235 | 26 | 235 | 3.2 | 4.8 | 0.00 | 0.00 | 0.00 | 44 | 1004.0 |
| 20260504231735 | 26 | 280 | 3.2 | 6.4 | 0.00 | 0.00 | 0.00 | 44 | 1004.0 |
| 20260504231235 | 26 | 251 | 3.2 | 3.2 | 0.00 | 0.00 | 0.00 | 45 | 1004.0 |
| 20260504230735 | 26 | 257 | 3.2 | 4.8 | 0.00 | 0.00 | 0.00 | 45 | 1004.0 |
| 20260504230235 | 26 | 245 | 3.2 | 8.0 | 0.00 | 0.00 | 0.00 | 45 | 1004.0 |
| 20260504225735 | 26 | 263 | 3.2 | 9.7 | 0.00 | 0.00 | 0.00 | 49 | 1004.0 |
| 20260504225235 | 25 | 211 | 3.2 | 4.8 | 0.00 | 0.00 | 0.00 | 52 | 1004.0 |
| 20260504224735 | 25 | 189 | 0.0 | 3.2 | 0.00 | 0.00 | 0.00 | 54 | 1004.0 |
| 20260504224235 | 24 | 230 | 1.6 | 3.2 | 0.00 | 0.00 | 0.00 | 55 | 1004.0 |
| 20260504223736 | 24 | 229 | 0.0 | 1.6 | 0.00 | 0.00 | 0.00 | 56 | 1004.0 |
| 20260504223236 | 25 | 222 | 1.6 | 3.2 | 0.00 | 0.00 | 0.00 | 55 | 1004.0 |
| 20260504222736 | 25 | 89 | 0.0 | 3.2 | 0.00 | 0.00 | 0.00 | 54 | 1004.0 |
| 20260504222236 | 25 | 228 | 0.0 | 1.6 | 0.00 | 0.00 | 0.00 | 53 | 1004.0 |
| 20260504221735 | 25 | 235 | 1.6 | 3.2 | 0.00 | 0.00 | 0.00 | 53 | 1004.0 |
| 20260504221235 | 25 | 246 | 0.0 | 3.2 | 0.00 | 0.00 | 0.00 | 53 | 1005.0 |
| 20260504220736 | 25 | 138 | 1.6 | 3.2 | 0.00 | 0.00 | 0.00 | 52 | 1005.0 |
| 20260504220235 | 25 | 200 | 0.0 | 3.2 | 0.00 | 0.00 | 0.00 | 51 | 1005.0 |
| 20260504215736 | 25 | 219 | 3.2 | 3.2 | 0.00 | 0.00 | 0.00 | 51 | 1005.0 |
| 20260504215235 | 25 | 230 | 0.0 | 3.2 | 0.00 | 0.00 | 0.00 | 52 | 1004.0 |
| 20260504214736 | 25 | 202 | 1.6 | 3.2 | 0.00 | 0.00 | 0.00 | 54 | 1004.0 |
| 20260504214236 | 25 | 229 | 1.6 | 4.8 | 0.00 | 0.00 | 0.00 | 53 | 1005.0 |
| 20260504213735 | 25 | 224 | 0.0 | 4.8 | 0.00 | 0.00 | 0.00 | 54 | 1005.0 |
| 20260504213236 | 25 | 206 | 3.2 | 4.8 | 0.00 | 0.00 | 0.00 | 54 | 1005.0 |
| 20260504212735 | 23 | 219 | 1.6 | 3.2 | 0.00 | 0.00 | 0.00 | 57 | 1005.0 |
| 20260504212235 | 23 | 217 | 3.2 | 3.2 | 0.00 | 0.00 | 0.00 | 59 | 1005.0 |
| 20260504211735 | 22 | 212 | 0.0 | 4.8 | 0.00 | 0.00 | 0.00 | 59 | 1005.0 |
| 20260504211235 | 22 | 200 | 1.6 | 4.8 | 0.00 | 0.00 | 0.00 | 60 | 1004.0 |
| 20260504210735 | 23 | 207 | 1.6 | 4.8 | 0.00 | 0.00 | 0.00 | 59 | 1005.0 |
| 20260504210236 | 24 | 218 | 0.0 | 4.8 | 0.00 | 0.00 | 0.00 | 59 | 1005.0 |
| 20260504205735 | 23 | 99 | 3.2 | 6.4 | 0.00 | 0.00 | 0.00 | 62 | 1005.0 |
| 20260504205235 | 22 | 180 | 0.0 | 3.2 | 0.00 | 0.00 | 0.00 | 65 | 1005.0 |
| 20260504204736 | 22 | 122 | 1.6 | 4.8 | 0.00 | 0.00 | 0.00 | 65 | 1005.0 |
| 20260504204237 | 22 | 64 | 4.8 | 6.4 | 0.00 | 0.00 | 0.00 | 67 | 1005.0 |
| 20260504203735 | 22 | 224 | 0.0 | 3.2 | 0.00 | 0.00 | 0.00 | 67 | 1005.0 |
| 20260504203235 | 21 | 168 | 1.6 | 3.2 | 0.00 | 0.00 | 0.00 | 69 | 1005.0 |
| 20260504202735 | 21 | 109 | 3.2 | 6.4 | 0.00 | 0.00 | 0.00 | 69 | 1005.0 |
| 20260504202235 | 21 | 158 | 0.0 | 1.6 | 0.00 | 0.00 | 0.00 | 73 | 1005.0 |
| 20260504201736 | 21 | 203 | 0.0 | 3.2 | 0.00 | 0.00 | 0.00 | 74 | 1005.0 |
| 20260504201235 | 20 | 165 | 0.0 | 9.7 | 0.00 | 0.00 | 0.00 | 76 | 1005.0 |
| 20260504200735 | 18 | 138 | 0.0 | 3.2 | 0.00 | 0.00 | 0.00 | 83 | 1005.0 |
| 20260504200235 | 19 | 211 | 0.0 | 3.2 | 0.00 | 0.00 | 0.00 | 86 | 1005.0 |
| 20260504195736 | 18 | 229 | 0.0 | 3.2 | 0.00 | 0.00 | 0.00 | 86 | 1005.0 |
| 20260504195235 | 18 | 104 | 4.8 | 4.8 | 0.00 | 0.00 | 0.00 | 88 | 1005.0 |
| 20260504194735 | 18 | 128 | 0.0 | 3.2 | 0.00 | 0.00 | 0.00 | 89 | 1005.0 |
| 20260504194235 | 18 | 224 | 0.0 | 1.6 | 0.00 | 0.00 | 0.00 | 90 | 1006.0 |
| 20260504193736 | 17 | 227 | 0.0 | 1.6 | 0.00 | 0.00 | 0.00 | 91 | 1006.0 |
| 20260504193236 | 17 | 175 | 1.6 | 1.6 | 0.00 | 0.00 | 0.00 | 92 | 1006.0 |
| 20260504192735 | 16 | 142 | 0.0 | 0.0 | 0.00 | 0.00 | 0.00 | 92 | 1006.0 |
| 20260504192236 | 16 | 307 | 1.6 | 3.2 | 0.00 | 0.00 | 0.00 | 91 | 1006.0 |
| 20260504191735 | 16 | 177 | 0.0 | 3.2 | 0.00 | 0.00 | 0.00 | 90 | 1005.0 |
| 20260504191235 | 16 | 117 | 0.0 | 4.8 | 0.00 | 0.00 | 0.00 | 91 | 1006.0 |
| 20260504190736 | 16 | 148 | 0.0 | 1.6 | 0.00 | 0.00 | 0.00 | 91 | 1007.0 |
| 20260504190236 | 16 | 110 | 0.0 | 3.2 | 0.00 | 0.00 | 0.00 | 91 | 1007.0 |
| 20260504185735 | 16 | 56 | 0.0 | 3.2 | 0.00 | 0.00 | 0.00 | 90 | 1007.0 |
| 20260504185235 | 16 | 269 | 0.0 | 3.2 | 0.00 | 0.00 | 0.00 | 89 | 1007.0 |
| 20260504184737 | 16 | 230 | 0.0 | 1.6 | 0.00 | 0.00 | 0.00 | 89 | 1007.0 |
| 20260504184236 | 16 | 345 | 3.2 | 3.2 | 0.00 | 0.00 | 0.00 | 87 | 1007.0 |
| 20260504183736 | 16 | 129 | 3.2 | 6.4 | 0.00 | 0.00 | 0.00 | 84 | 1006.0 |
| 20260504182803 | 17 | 147 | 3.2 | 6.4 | 0.00 | 0.00 | 0.00 | 77 | 1007.0 |
| 20260504182236 | 18 | 103 | 3.2 | 4.8 | 0.00 | 0.00 | 0.00 | 69 | 1008.0 |
| 20260504181736 | 18 | 2 | 3.2 | 6.4 | 0.00 | 0.00 | 0.00 | 65 | 1007.0 |
| 20260504181236 | 18 | 91 | 1.6 | 4.8 | 0.00 | 0.00 | 0.00 | 66 | 1008.0 |
| 20260504180736 | 18 | 75 | 0.0 | 4.8 | 0.00 | 0.00 | 0.00 | 66 | 1007.0 |
| 20260504180235 | 18 | 89 | 0.0 | 1.6 | 0.00 | 0.00 | 0.00 | 69 | 1007.0 |
| 20260504175735 | 18 | 101 | 1.6 | 3.2 | 0.00 | 0.00 | 0.00 | 69 | 1007.0 |
| 20260504175236 | 17 | 89 | 0.0 | 3.2 | 0.00 | 0.00 | 0.00 | 71 | 1007.0 |
| 20260504174736 | 17 | 219 | 0.0 | 1.6 | 0.00 | 0.00 | 0.00 | 71 | 1007.0 |
| 20260504174236 | 17 | 174 | 0.0 | 3.2 | 0.00 | 0.00 | 0.00 | 73 | 1007.0 |
| 20260504173313 | 17 | 212 | 0.0 | 3.2 | 0.00 | 0.00 | 0.00 | 76 | 1007.0 |
| 20260504172736 | 17 | 105 | 0.0 | 3.2 | 0.00 | 0.00 | 0.00 | 75 | 1007.0 |
| 20260504172237 | 17 | 297 | 0.0 | 3.2 | 0.00 | 0.00 | 0.00 | 73 | 1007.0 |
| 20260504171736 | 17 | 284 | 0.0 | 1.6 | 0.00 | 0.00 | 0.00 | 71 | 1007.0 |
| 20260504171235 | 18 | 276 | 0.0 | 3.2 | 0.00 | 0.00 | 0.00 | 71 | 1007.0 |
| 20260504170735 | 18 | 264 | 0.0 | 1.6 | 0.00 | 0.00 | 0.00 | 67 | 1007.0 |
| 20260504170237 | 18 | 182 | 1.6 | 4.8 | 0.00 | 0.00 | 0.00 | 65 | 1007.0 |
| 20260504160236 | 19 | 230 | 0.0 | 0.0 | 0.00 | 0.00 | 0.00 | 58 | 1009.0 |
| 20260504150736 | 21 | 227 | 0.0 | 1.6 | 0.00 | 0.00 | 0.00 | 54 | 1009.0 |
| 20260504150235 | 21 | 234 | 1.6 | 3.2 | 0.00 | 0.00 | 0.00 | 53 | 1009.0 |
| 20260504141235 | 21 | 275 | 0.0 | 3.2 | 0.00 | 0.00 | 0.00 | 51 | 1009.0 |
| 20260504140740 | 21 | 163 | 0.0 | 4.8 | 0.00 | 0.00 | 0.00 | 51 | 1009.0 |
| 20260504140240 | 20 | 260 | 1.6 | 3.2 | 0.00 | 0.00 | 0.00 | 54 | 1009.0 |
| 20260504130736 | 17 | 118 | 3.2 | 6.4 | 0.00 | 0.00 | 0.00 | 66 | 1010.0 |
| 20260504130235 | 17 | 188 | 3.2 | 3.2 | 0.00 | 0.00 | 0.00 | 67 | 1010.0 |
| 20260504120235 | 14 | 160 | 1.6 | 4.8 | 0.00 | 0.00 | 0.00 | 75 | 1010.0 |
| 20260504110236 | 14 | 139 | 1.6 | 4.8 | 0.00 | 0.00 | 0.00 | 74 | 1010.0 |
| 20260504100235 | 14 | 242 | 0.0 | 3.2 | 0.00 | 0.00 | 0.00 | 73 | 1009.0 |
| 20260504081735 | 15 | 110 | 1.6 | 3.2 | 0.00 | 0.00 | 0.00 | 67 | 1009.0 |
| 20260504081235 | 15 | 281 | 3.2 | 3.2 | 0.00 | 0.00 | 0.00 | 65 | 1009.0 |
| 20260504080735 | 15 | 100 | 3.2 | 4.8 | 0.00 | 0.00 | 0.00 | 65 | 1009.0 |
| 20260504080236 | 16 | 101 | 3.2 | 4.8 | 0.00 | 0.00 | 0.00 | 64 | 1009.0 |
| 20260504070236 | 17 | 93 | 3.2 | 4.8 | 0.00 | 0.00 | 0.00 | 55 | 1009.0 |
| 20260504060237 | 18 | 224 | 0.0 | 1.6 | 0.00 | 0.00 | 0.00 | 52 | 1009.0 |
| 20260504050735 | 19 | 264 | 6.4 | 6.4 | 0.00 | 0.00 | 0.00 | 50 | 1009.0 |
| 20260504050235 | 19 | 246 | 0.0 | 6.4 | 0.00 | 0.00 | 0.00 | 50 | 1009.0 |
| 20260504045735 | 19 | 208 | 1.6 | 4.8 | 0.00 | 0.00 | 0.00 | 50 | 1009.0 |
| 20260504045235 | 19 | 283 | 0.0 | 8.0 | 0.00 | 0.00 | 0.00 | 49 | 1009.0 |
| 20260504044735 | 19 | 280 | 8.0 | 8.0 | 0.00 | 0.00 | 0.00 | 50 | 1010.0 |
| 20260504044235 | 19 | 236 | 3.2 | 3.2 | 0.00 | 0.00 | 0.00 | 49 | 1010.0 |
| 20260504043735 | 20 | 263 | 1.6 | 6.4 | 0.00 | 0.00 | 0.00 | 48 | 1010.0 |
| 20260504043235 | 20 | 218 | 0.0 | 9.7 | 0.00 | 0.00 | 0.00 | 48 | 1010.0 |
| 20260504042735 | 20 | 249 | 3.2 | 4.8 | 0.00 | 0.00 | 0.00 | 48 | 1010.0 |
| 20260504042235 | 20 | 261 | 4.8 | 4.8 | 0.00 | 0.00 | 0.00 | 48 | 1010.0 |
| 20260504041735 | 20 | 258 | 0.0 | 3.2 | 0.00 | 0.00 | 0.00 | 48 | 1010.0 |
| 20260504041235 | 20 | 242 | 1.6 | 8.0 | 0.00 | 0.00 | 0.00 | 47 | 1010.0 |
| 20260504040736 | 20 | 230 | 0.0 | 3.2 | 0.00 | 0.00 | 0.00 | 47 | 1010.0 |
| 20260504040236 | 20 | 310 | 1.6 | 3.2 | 0.00 | 0.00 | 0.00 | 46 | 1010.0 |
| 20260504035735 | 20 | 212 | 0.0 | 4.8 | 0.00 | 0.00 | 0.00 | 46 | 1010.0 |
| 20260504035235 | 20 | 221 | 0.0 | 6.4 | 0.00 | 0.00 | 0.00 | 45 | 1011.0 |
| 20260504034735 | 20 | 241 | 3.2 | 6.4 | 0.00 | 0.00 | 0.00 | 45 | 1011.0 |
| 20260504034235 | 20 | 254 | 3.2 | 6.4 | 0.00 | 0.00 | 0.00 | 45 | 1011.0 |
| 20260504033735 | 20 | 234 | 4.8 | 8.0 | 0.00 | 0.00 | 0.00 | 45 | 1011.0 |
| 20260504033235 | 20 | 227 | 1.6 | 4.8 | 0.00 | 0.00 | 0.00 | 45 | 1011.0 |
| 20260504032736 | 20 | 245 | 3.2 | 8.0 | 0.00 | 0.00 | 0.00 | 45 | 1011.0 |
| 20260504032235 | 20 | 254 | 1.6 | 4.8 | 0.00 | 0.00 | 0.00 | 45 | 1011.0 |
| 20260504031736 | 20 | 266 | 1.6 | 4.8 | 0.00 | 0.00 | 0.00 | 45 | 1011.0 |
| 20260504031236 | 20 | 257 | 3.2 | 4.8 | 0.00 | 0.00 | 0.00 | 45 | 1011.0 |
| 20260504030253 | 20 | 217 | 3.2 | 4.8 | 0.00 | 0.00 | 0.00 | 45 | 1010.0 |
| 20260504025735 | 20 | 205 | 0.0 | 3.2 | 0.00 | 0.00 | 0.00 | 45 | 1010.0 |